Date String (YYYY-MM-DD hh:mm:ss) UTC,Instrument flags,Ambient pressure (hPa),Sample flow (lpm),Bypass flow (lpm),Sample temperature (°C),Ambient temperature (°C),ASC tube jacket temperature (°C),LED temperature (°C),Box temperature (°C),Sample RH (%),Span deviation,Mass concentration (μg/m³),Mass concentration (μg/m³),Mass concentration (μg/m³)
DateTimeUTC,F1_M11,P_M11,Q1_M11,Q2_M11,T1_M11,T2_M11,T3_M11,T4_M11,T5_M11,U1_M11,ZSPAN_M11,X0_M11,X2_M11,X1_M11
2022-04-22 08:00:00,,0817.4,5.00,0.00,30.2,29.3,00.0,39.1,32.0,08.8,0003.2,0021.26,0008.01,0005.15
2022-04-22 08:01:00,,0817.5,5.00,0.00,30.2,29.3,00.0,39.1,32.0,09.0,0002.8,0021.40,0008.08,0005.13
2022-04-22 08:02:00,,0817.5,4.99,0.00,30.2,29.4,00.0,39.1,31.9,09.1,0002.7,0022.76,0008.19,0005.14
2022-04-22 08:03:00,,0817.4,4.99,0.00,30.3,29.4,00.0,39.2,32.0,09.2,0003.0,0023.82,0008.39,0005.19
2022-04-22 08:04:00,,0817.4,5.01,0.00,30.3,29.4,00.0,39.2,32.0,09.2,0003.2,0023.70,0008.41,0005.22
2022-04-22 08:05:00,,0817.5,4.99,0.00,30.3,29.4,00.0,39.2,32.0,09.2,0002.9,0022.56,0008.34,0005.22
2022-04-22 08:06:00,,0817.5,4.99,0.00,30.3,29.4,00.0,39.2,32.0,09.1,0003.2,0023.16,0008.22,0005.20
2022-04-22 08:07:00,,0817.5,5.02,0.00,30.3,29.4,00.0,39.2,32.0,09.2,0003.2,0023.32,0008.20,0005.19
2022-04-22 08:08:00,,0817.4,4.99,0.00,30.3,29.4,00.0,39.2,32.0,09.2,0003.0,0022.97,0008.21,0005.20
2022-04-22 08:09:00,,0817.4,5.01,0.00,30.3,29.4,00.0,39.2,32.0,09.3,0002.1,0023.41,0008.31,0005.23
2022-04-22 08:10:00,,0817.4,5.00,0.00,30.3,29.4,00.0,39.2,32.0,09.0,0001.6,0023.37,0008.37,0005.26
2022-04-22 08:11:00,,0817.6,5.00,0.00,30.3,29.4,00.0,39.2,32.0,08.6,0001.2,0024.27,0008.33,0005.22
2022-04-22 08:12:00,,0817.5,5.00,0.00,30.3,29.4,00.0,39.2,32.0,09.1,0001.1,0023.76,0008.31,0005.23
2022-04-22 08:13:00,,0817.4,5.00,0.00,30.3,29.4,00.0,39.2,32.0,09.1,0001.1,0022.31,0008.24,0005.24
2022-04-22 08:14:00,,0817.4,5.00,0.00,30.3,29.4,00.0,39.2,32.0,09.0,0000.4,0021.78,0008.18,0005.23
2022-04-22 08:15:00,,0817.4,4.99,0.00,30.3,29.4,00.0,39.2,32.0,09.0,0000.3,0021.67,0008.11,0005.21
2022-04-22 08:16:00,,0817.4,4.99,0.00,30.3,29.4,00.0,39.2,32.0,09.1,0000.7,0021.89,0008.16,0005.22
2022-04-22 08:17:00,,0817.4,5.02,0.00,30.3,29.4,00.0,39.2,32.0,09.4,0001.7,0021.41,0008.25,0005.23
2022-04-22 08:18:00,,0817.4,4.99,0.00,30.3,29.4,00.0,39.2,32.0,09.4,0002.3,0021.31,0008.36,0005.25
2022-04-22 08:19:00,,0817.4,5.01,0.00,30.3,29.4,00.0,39.2,32.0,09.4,0002.8,0021.20,0008.39,0005.24
2022-04-22 08:20:00,,0817.2,5.00,0.00,30.3,29.4,00.0,39.2,32.0,09.4,0001.0,0021.51,0008.40,0005.25
2022-04-22 08:21:00,,0817.1,4.99,0.00,30.3,29.4,00.0,39.2,32.0,09.6,0000.9,0021.14,0008.38,0005.26
2022-04-22 08:22:00,,0817.4,4.99,0.00,30.3,29.4,00.0,39.2,32.0,09.5,0004.1,0020.56,0008.45,0005.31
2022-04-22 08:23:00,,0817.6,5.02,0.00,30.3,29.4,00.0,39.2,32.0,09.3,0004.1,0021.18,0008.48,0005.32
2022-04-22 08:24:00,,0817.5,5.01,0.00,30.3,29.4,00.0,39.2,32.0,09.0,0004.1,0021.50,0008.55,0005.32
2022-04-22 08:25:00,,0817.4,4.98,0.00,30.3,29.3,00.0,39.2,32.0,09.1,0003.3,0022.23,0008.52,0005.33
2022-04-22 08:26:00,,0817.4,5.02,0.00,30.3,29.3,00.0,39.2,32.0,09.1,0003.7,0022.95,0008.62,0005.34
2022-04-22 08:27:00,,0817.3,5.00,0.00,30.3,29.3,00.0,39.2,32.0,09.1,0003.7,0023.68,0008.59,0005.33
2022-04-22 08:28:00,,0817.3,5.00,0.00,30.3,29.3,00.0,39.2,32.0,09.2,0003.3,0024.80,0008.55,0005.31
2022-04-22 08:29:00,,0817.4,5.00,0.00,30.3,29.3,00.0,39.2,32.0,09.2,0003.3,0025.30,0008.47,0005.30
2022-04-22 08:30:00,,0817.3,4.99,0.00,30.3,29.3,00.0,39.2,32.0,09.3,0003.1,0026.26,0008.51,0005.31
2022-04-22 08:31:00,,0817.4,5.01,0.00,30.3,29.4,00.0,39.2,32.0,09.4,0003.3,0025.75,0008.50,0005.30
2022-04-22 08:32:00,,0817.3,4.99,0.00,30.3,29.4,00.0,39.2,32.0,09.3,0002.0,0025.19,0008.44,0005.28
2022-04-22 08:33:00,,0817.2,5.02,0.00,30.3,29.4,00.0,39.2,32.0,09.3,0001.7,0024.56,0008.43,0005.26
2022-04-22 08:34:00,,0817.1,5.00,0.00,30.3,29.4,00.0,39.3,32.0,09.3,0002.6,0024.29,0008.42,0005.26
2022-04-22 08:35:00,,0817.2,5.00,0.00,30.3,29.4,00.0,39.3,32.0,09.3,0003.0,0024.42,0008.34,0005.25
2022-04-22 08:36:00,,0817.1,5.01,0.00,30.3,29.4,00.0,39.3,32.0,09.4,0004.0,0023.55,0008.30,0005.25
2022-04-22 08:37:00,,0817.2,4.99,0.00,30.3,29.4,00.0,39.3,32.1,09.3,0003.8,0023.16,0008.32,0005.25
2022-04-22 08:38:00,,0817.4,5.02,0.00,30.4,29.4,00.0,39.3,32.0,08.8,0003.5,0022.57,0008.32,0005.26
2022-04-22 08:39:00,,0817.4,4.99,0.00,30.3,29.4,00.0,39.3,32.0,08.8,0003.0,0021.18,0008.28,0005.25
2022-04-22 08:40:00,,0817.4,5.00,0.00,30.3,29.3,00.0,39.3,32.0,09.0,0002.8,0020.62,0008.26,0005.24
2022-04-22 08:41:00,,0817.4,5.01,0.00,30.3,29.3,00.0,39.3,32.0,09.2,0000.1,0019.82,0008.18,0005.23
2022-04-22 08:42:00,,0817.4,4.99,0.00,30.3,29.3,00.0,39.3,32.0,09.2,0000.0,0020.59,0008.13,0005.21
2022-04-22 08:43:00,,0817.4,5.00,0.00,30.3,29.3,00.0,39.3,32.0,09.3,0000.0,0020.81,0008.14,0005.20
2022-04-22 08:44:00,,0817.3,5.01,0.00,30.3,29.3,00.0,39.3,32.0,09.2,0000.0,0020.62,0008.07,0005.20
2022-04-22 08:45:00,,0817.3,4.99,0.00,30.3,29.4,00.0,39.3,32.0,09.1,0000.0,0021.00,0008.11,0005.22
2022-04-22 08:46:00,,0817.3,4.99,0.00,30.3,29.4,00.0,39.3,32.0,08.8,0000.0,0021.81,0008.18,0005.21
2022-04-22 08:47:00,,0817.1,5.01,0.00,30.3,29.4,00.0,39.3,32.0,08.5,0000.0,0021.84,0008.10,0005.17
2022-04-22 08:48:00,,0817.1,5.01,0.00,30.3,29.4,00.0,39.3,32.0,08.4,0000.0,0021.83,0007.94,0005.12
2022-04-22 08:49:00,,0817.2,4.98,0.00,30.3,29.4,00.0,39.3,32.0,08.2,0000.0,0022.29,0007.87,0005.07
2022-04-22 08:50:00,,0817.4,5.00,0.00,30.3,29.4,00.0,39.3,32.0,08.1,0001.3,0022.33,0007.86,0005.02
2022-04-22 08:51:00,,0817.5,5.01,0.00,30.3,29.3,00.0,39.3,32.0,08.1,0000.2,0022.46,0007.71,0004.94
2022-04-22 08:52:00,,0817.5,5.00,0.00,30.3,29.3,00.0,39.3,32.0,08.0,0000.0,0021.84,0007.57,0004.83
2022-04-22 08:53:00,,0817.4,5.01,0.00,30.3,29.3,00.0,39.3,32.0,08.2,0000.0,0021.26,0007.47,0004.76
2022-04-22 08:54:00,,0817.2,4.98,0.00,30.3,29.3,00.0,39.3,31.9,08.9,0000.4,0021.36,0007.46,0004.74
2022-04-22 08:55:00,,0817.1,5.01,0.00,30.2,29.2,00.0,39.3,31.9,08.9,0000.0,0021.47,0007.47,0004.73
2022-04-22 08:56:00,,0817.2,5.00,0.00,30.2,29.2,00.0,39.2,31.9,08.9,0000.4,0020.81,0007.36,0004.70
2022-04-22 08:57:00,,0817.3,4.99,0.00,30.2,29.2,00.0,39.2,31.9,08.9,0002.7,0020.06,0007.34,0004.69
2022-04-22 08:58:00,,0817.4,5.01,0.00,30.2,29.3,00.0,39.2,31.9,09.0,0001.0,0020.99,0007.43,0004.71
2022-04-22 08:59:00,,0817.5,4.99,0.00,30.2,29.3,00.0,39.2,31.9,08.9,0000.0,0021.86,0007.53,0004.74
